Location: Azul
(36.7830°S, 59.8500°W)
Time: 03:31:15
(UTC-03:00)

ISS - Pass Details

Date: 25 November 2020
Orbit: 418 x 420 km, 51.6° (Epoch: 04 December)

Event Time Altitude Azimuth Distance (km) Brightness Sun altitude
Exits shadow 04:46:00 11° 328° (NNW) 1,425 -1.6 -9.3°
Maximum altitude 04:49:06 53° 45° (NE) 529 -3.2 -8.8°
Drops below altitude 10° 04:52:28 10° 122° (ESE) 1,529 0.8 -8.3°
Sets 04:54:37 0° 126° (SE) 2,401 2.7 -7.9°
